CAPE
1284 1639 1120 1123 1202 1561 1805 1908 1765 1716 1459 1669 1601 1417 1551 1596 1650 1692 2050 1988 2052 2313 2401 2330 2504 2500 2501 2835 2729 3183 3657 3648 3453 3661 3962 4310 3879 3262 3586 3499 3648 3660 3634 3744 3508 3488 3700 3476 3238 3355 3548 3594 3679 3600 3266 3134 3333 3449 3619 3802 3578 3629 3567 3580 3012 2964 2966 2682 2252 2506 1758 1932 1814 2044 1888 1585 1396 1539 1568 1533 1588 1142 912 802 639
2212 2577 1744 1377 1252 1371 1292 1215 1601 1296 1214 1130 1268 1160 1243 1595 1643 1793 1766 1892 1692 2051 2298 2141 2302 2591 2584 2643 2875 3176 3574 3574 3323 3346 3730 3994 3931 3302 3123 3245 3642 3460 3617 3805 3816 3349 3496 3539 3262 3394 3832 3813 3414 3310 2883 2577 2525 2616 2920 3035 3256 3233 3407 3449 3316 3036 2025 1625 2261 2497 2142 1939 1594 1920 1900 1950 1832 2097 1697 1683 1086 776 676 716 434
2866 3248 2876 2307 2108 1718 1558 1250 1204 1102 828 693 762 686 947 1194 1392 1425 1248 931 1630 1765 2206 2083 2520 3064 2874 2991 3286 3344 3563 3610 3376 3392 3581 3774 3799 3390 2973 3422 3609 3611 3643 3742 3325 3523 3387 3306 3435 3268 3007 3071 3287 3045 2818 2993 2996 3072 3149 3185 3337 3158 3045 3292 3341 3109 3002 2946 2762 2507 2155 2131 1990 1747 1874 1759 2021 1787 2035 1491 1013 620 637 441 335
3073 3392 3307 3115 3014 2325 2056 1676 1310 792 490 422 421 483 367 502 892 1061 850 496 836 1924 2113 2429 2838 3301 3182 3298 3472 3389 3535 3376 3323 3415 3602 3540 3628 3808 3560 3611 3479 3536 3517 3328 3118 3072 2987 3192 3097 3054 3297 3242 2959 2883 2371 2609 2831 3171 3005 3003 3064 2709 2649 2664 2948 3131 2973 2878 2926 2586 2497 2287 2256 2106 1817 1586 1409 1557 1731 1764 1446 880 1037 711 310
3090 3313 3320 3287 3068 2944 2600 2272 1865 1761 1600 1221 662 383 288 267 337 535 495 328 385 1373 2381 2508 2902 3500 3126 3202 3264 3302 3258 3366 3497 3177 3142 3374 3536 3392 3445 3542 3721 3756 3653 3542 3344 3014 3005 2985 2690 2996 3125 2910 3046 2717 2748 3198 3018 2706 2472 2566 2619 2608 2562 2550 2671 2679 2697 2651 2569 2629 2536 2284 2031 1883 1707 1501 1283 979 1142 1352 1322 927 1110 1072 433
2475 2610 2696 2800 2975 2705 2017 1720 1856 2010 2259 2118 1885 1205 635 409 363 376 552 400 417 712 1652 2272 2176 2832 2907 3000 3079 3286 3121 3418 3459 3440 2997 2882 2946 3081 3223 3347 3223 3367 3377 3408 3373 3244 3152 3160 3308 2695 2495 2371 2500 2603 2677 2317 2198 2270 2541 2574 2262 2171 2382 2352 2217 2367 2522 2558 2453 2130 1940 1558 1674 2082 1937 1923 1508 1311 1502 1394 1079 938 1225 1237 1182
2620 2715 2422 1928 1987 1437 1103 1607 1942 2315 2661 2640 2648 2232 1432 789 509 567 660 613 482 575 860 1226 1700 2029 2238 2283 2405 2828 3095 3010 3245 3445 3193 3010 2917 3024 2936 3130 3227 2949 3079 2621 2556 2776 2737 2592 2831 2494 2355 2511 2473 2495 2532 2575 2358 2223 2153 2435 2405 2304 2178 2110 1943 2132 2140 1934 1638 1398 1313 1192 1348 1359 1341 1712 2833 2568 1841 1448 1604 1541 1496 1950 2545
2085 2385 2331 2047 1801 1759 1752 1876 2125 2580 3027 2968 3055 2858 2388 1676 1381 1374 1372 1156 954 801 740 934 1213 1418 1526 1569 1726 2317 3006 3031 3264 3149 3083 2814 2789 2868 2780 2618 2617 2754 2664 2775 2413 2215 2290 2249 2018 2228 2436 2540 2548 2656 2565 2495 2630 2756 2562 2569 2664 2584 2469 2161 2153 2166 2203 1824 1523 1244 1525 1755 1820 1582 1266 1134 1090 1397 1183 1065 1288 1945 2416 2616 2312
1703 1648 1973 1881 1995 2297 2418 2152 2228 2753 2855 2884 2852 2895 3085 2615 2203 2057 1922 1740 1316 1035 802 714 1038 1410 1339 1460 1450 1941 2202 2477 2486 2730 2592 2536 2560 2560 2594 2562 2400 2315 2341 2262 2399 2435 2076 1906 1734 1614 1825 2271 3299 3806 3366 3205 2412 2119 2300 2525 2631 2445 2498 2441 2295 2334 2406 1832 1805 1824 1472 1360 1456 1272 661 699 860 814 888 1314 1783 1950 1626 1744 2088
1721 1819 1761 1738 1926 1911 2073 2203 2078 1887 1946 1864 1886 2156 2281 2358 2251 2443 2238 2034 1770 1538 1416 1192 1340 1334 1588 1757 1592 1566 1660 1795 1955 1766 2079 2348 2706 2564 2458 2623 2540 2458 2488 2518 2220 2119 2116 1968 1576 1632 2767 2808 3433 3780 3050 2546 2360 2543 2743 2764 2855 2900 2652 2590 2404 2105 1849 2029 1763 1239 1061 780 609 603 586 595 428 416 562 1034 1295 1518 1935 2227 2506
1846 1652 1597 1566 1426 1605 1777 1876 1557 1093 904 933 1358 1413 1430 1861 2014 2178 2202 2160 2305 2416 2275 1974 1555 1485 1386 1429 1398 1109 1252 1637 1461 1446 1247 838 1609 1762 2132 2730 3035 3096 2879 2674 2636 2378 2301 2129 2137 1934 3471 4074 3534 2781 2834 2918 2885 2533 2236 2340 2883 2814 2668 2441 2097 2030 1799 1476 1188 1170 893 862 1042 987 807 268 155 288 662 1134 1351 1518 2015 2267 2360
1547 1494 1596 1633 1385 1076 1216 1389 1432 1382 1189 975 897 970 1097 1442 1835 1689 2007 1994 2205 2331 2636 2656 2766 2489 1952 1778 1596 1404 1571 1367 1224 1048 882 714 1068 1776 1660 1823 2157 2548 2711 2689 2585 2427 2316 2057 1962 1759 1843 2216 2700 3373 3975 3635 2603 2654 2609 2422 2384 2322 2420 2686 2831 2712 2517 1893 1456 1181 887 755 731 870 421 270 560 966 1523 1805 2007 2150 2139 2110 2146
1343 1371 1142 1152 1135 1115 946 1117 1196 1225 1306 1409 1399 1318 1313 1241 1494 1590 1544 1841 1898 2221 2587 2683 2812 2754 2611 2668 2350 2104 2246 1545 1268 1133 981 895 816 878 1513 1514 1526 1998 2222 2588 2738 2665 2758 2617 2386 1998 1562 3129 2380 2521 3220 3404 3948 2803 2567 2304 2040 1658 1259 1070 1116 2397 2838 2942 2634 2014 1786 1409 1507 1538 1392 2093 3017 2635 2648 2072 1806 1790 1893 2006 1952
788 829 814 895 1114 1208 1488 949 985 924 1058 1124 1134 1185 1274 1281 1395 1796 1728 1920 1920 2209 2592 2646 2747 2858 2650 2763 2863 2456 1809 1627 1358 1208 1140 1079 991 844 1781 2182 2049 1771 1920 2238 2311 2588 3092 3135 2899 2778 2922 3209 3520 3458 3796 3616 3647 3758 4261 4272 4412 4002 3178 2304 1724 1389 1480 1959 2359 2544 2688 2906 2834 3024 3144 3225 3340 3065 2616 2373 2582 2406 2268 2327 2452
671 673 663 724 637 632 595 615 725 605 528 571 696 949 1174 1253 1109 1212 1622 1798 1649 2311 2432 2486 2482 2496 2345 2401 2385 1658 1438 1445 1414 1331 1240 1182 1092 825 1796 2700 2810 2390 2524 2706 2946 2717 2781 3018 3071 2844 3142 3815 3997 3219 2878 2820 3139 3173 3287 3289 2902 2745 3051 2853 3134 2868 2553 2016 2073 2386 2593 2648 2914 2878 2927 2928 2760 2829 2489 2761 2920 2830 2642 2604 2605
637 679 629 599 676 542 407 495 585 568 565 527 644 651 782 969 1065 1183 1512 1721 1712 1783 1632 1857 1903 1888 2007 1920 1607 1375 1413 1277 1247 1169 1158 1164 1136 1431 2773 3080 2666 2786 3231 3180 3239 3455 3128 3000 3292 3124 3259 3466 2356 1945 1308 1659 2124 2494 2800 3029 3084 2522 1870 1403 1886 2062 2002 1791 1806 1829 1793 1820 1512 1464 1454 1353 1249 1440 1365 1435 1527 1870 2131 2016 2065
575 549 497 495 429 480 466 473 507 480 435 385 364 417 555 676 732 908 1281 1450 1447 1298 1148 1110 1272 1183 1264 1751 1705 1523 1335 1162 1084 1022 1017 1035 1120 2372 2844 2751 2925 2969 3059 3242 3086 3003 3078 2750 2999 3144 2893 2248 1922 1557 1298 970 2184 2640 2896 2810 2605 2602 2559 2240 1657 1369 1515 1598 1568 1496 1441 1380 1327 1194 1085 1021 982 917 894 959 1201 1322 1401 1564 1708
488 410 366 412 334 365 383 396 394 232 250 302 342 351 370 493 622 592 881 965 1018 925 860 833 806 765 795 887 1030 1123 1128 1068 993 1060 1141 1089 1060 2102 2582 2456 2575 2686 2769 2506 2719 2715 2287 1743 1989 2214 1886 1620 1513 1356 1053 908 1934 2245 2110 2268 2088 1786 2144 1645 1707 1564 1380 1260 1580 1690 1648 1666 1732 1612 1556 1523 1468 1306 1085 1087 1319 1343 1382 1499 1568
423 338 241 236 223 343 315 258 207 176 0 166 359 349 478 491 656 730 607 575 523 528 748 645 543 566 610 666 778 761 771 797 807 826 881 975 1025 1467 1980 2133 2138 2253 2302 2341 2334 2218 1692 1504 1248 1156 1109 1011 984 1001 953 922 1159 1578 1797 1725 1900 2012 1991 1738 1928 1689 1798 1821 1955 2866 3095 2299 2504 2242 2038 1889 1846 1749 1614 1488 1220 1368 1548 1678 1826
307 305 96 104 243 325 299 257 197 133 26 145 8 135 98 1 213 357 317 602 621 605 604 481 490 580 602 596 612 589 571 592 689 754 782 836 887 1055 1440 1459 1359 1676 1946 1883 2057 2002 1424 1213 1045 933 892 835 865 856 854 814 676 653 857 1132 1267 1436 1182 889 845 699 920 1274 1586 1649 1564 1900 1900 2175 2210 2367 2188 2103 1889 1844 1775 1989 2014 1996 2073
269 238 209 126 215 264 303 287 116 166 51 97 137 222 227 223 70 104 228 211 235 243 242 325 454 458 437 449 448 463 459 455 444 412 468 517 554 571 606 692 982 1246 1394 1407 1470 1436 1324 927 899 742 614 587 558 505 450 384 348 320 286 277 313 229 224 247 242 228 211 308 665 1209 1615 1798 2064 2250 2469 2414 2263 2183 2163 2007 2096 2158 1891 1786 2304
81 188 163 257 312 317 306 274 211 0 198 196 149 32 0 193 15 0 0 78 68 56 0 116 236 276 310 339 352 380 384 374 362 333 342 352 354 357 351 342 319 412 606 719 969 568 517 397 345 485 597 546 456 416 363 337 311 324 971 310 277 260 252 218 194 190 162 140 117 80 54 431 510 1206 1778 2132 2279 1691 2049 2210 2363 2206 1983 1700 1597
189 195 66 226 295 290 254 195 138 153 174 144 232 144 166 112 130 0 6 74 56 0 0 108 60 59 167 242 286 289 302 298 289 281 282 286 288 292 280 273 270 262 283 358 395 431 436 426 520 521 511 447 360 312 260 226 232 230 210 183 160 136 114 101 101 94 75 38 13 40 135 465 688 582 589 1078 1564 1880 1625 1472 1800 1980 2018 1956 1984
174 203 201 112 0 179 207 171 0 0 0 96 30 199 206 187 112 116 201 24 44 36 164 162 142 167 191 216 221 240 242 239 216 204 180 159 157 161 164 175 187 189 168 159 216 264 274 240 265 229 276 258 220 174 129 111 94 69 55 46 35 20 5 6 37 205 402 310 308 260 417 414 457 704 906 956 986 1106 960 789 940 1344 1665 1767 1794
152 137 154 169 158 152 126 94 112 98 0 40 167 188 172 158 169 162 160 154 69 0 0 0 0 0 32 80 106 95 116 126 137 133 116 102 96 32 31 68 81 93 91 89 85 122 138 146 151 136 134 136 138 122 89 47 0 31 8 5 0 2 14 152 299 267 95 95 76 113 160 165 294 569 890 1002 720 645 776 910 934 1012 1013 1191 1238
160 143 136 124 127 157 154 112 79 47 105 0 0 82 89 45 0 0 86 90 0 0 0 0 0 0 0 0 0 0 0 0 0 0 0 0 0 0 0 0 0 0 0 0 0 0 0 0 0 36 0 0 0 5 0 4 0 0 0 0 0 0 28 36 8 6 43 15 3 20 56 173 365 571 532 669 760 760 765 839 786 738 812 844 852
68 94 115 117 89 73 89 119 96 53 0 0 0 0 0 75 108 83 10 63 0 0 0 0 0 0 0 0 0 0 0 0 0 0 0 0 0 0 0 0 0 0 0 0 0 0 0 0 0 0 0 0 0 0 0 0 0 4 48 7 15 4 3 14 45 69 63 26 29 128 224 240 243 367 476 509 541 575 789 791 707 765 789 862 960
0 0 0 0 0 0 11 56 54 94 111 46 0 0 0 0 0 0 0 0 0 0 0 0 0 0 0 0 0 0 0 0 0 0 0 0 0 0 0 0 0 0 0 0 0 0 0 0 0 6 87 89 91 76 96 93 39 0 0 0 0 0 0 15 17 89 311 280 259 239 208 293 380 269 288 350 396 402 456 510 554 596 605 704 882
0 0 0 0 0 0 0 0 0 20 62 88 79 0 0 0 0 0 0 0 0 0 0 0 0 0 0 0 0 0 0 0 0 0 0 0 0 0 0 0 0 0 0 0 0 0 0 0 0 0 0 0 0 0 0 0 0 0 0 0 0 0 0 1 43 38 52 105 75 165 109 94 86 69 100 91 96 92 157 154 156 329 469 484 565
0 0 0 0 0 0 0 0 0 0 3 0 0 0 0 0 0 0 0 0 0 0 0 0 0 0 0 0 0 0 0 0 0 0 0 0 0 0 0 0 0 0 0 0 0 0 0 0 0 0 0 0 0 0 0 0 0 0 0 0 0 0 18 12 2 22 56 51 57 26 35 6 17 18 0 0 0 0 0 0 43 206 193 175 184
0 0 0 0 0 0 0 0 0 0 0 0 0 0 0 0 0 0 0 0 0 0 0 0 0 0 0 0 0 0 0 0 0 0 0 0 0 0 0 0 0 0 0 0 0 0 0 0 0 0 0 0 0 0 0 0 0 0 0 0 0 0 3 34 60 29 43 6 2 0 0 0 0 0 0 0 0 0 0 0 0 0 0 0 0
0 0 0 0 0 0 0 0 0 0 0 0 0 0 1 8 0 0 0 0 0 0 0 0 0 0 0 0 0 0 3 0 0 0 0 0 0 0 0 0 0 0 0 0 0 0 0 0 0 0 0 0 0 0 0 0 0 0 0 0 0 0 1 1 26 8 2 0 2 1 0 1 1 0 0 0 0 0 0 0 0 0 0 0 0
0 0 0 0 0 0 0 0 0 0 0 0 0 0 0 0 0 0 0 0 0 0 0 0 0 0 0 0 0 0 0 0 0 0 0 0 0 0 0 0 0 0 0 0 0 0 0 0 0 0 0 0 0 0 0 0 0 0 0 0 0 0 0 12 18 30 11 6 2 1 0 0 0 0 0 0 0 0 0 0 0 0 0 0 0
0 0 0 0 0 0 0 0 0 0 0 0 0 0 0 0 0 0 0 0 0 0 0 0 0 0 0 0 0 0 0 0 0 0 0 0 0 0 0 0 0 0 0 0 0 0 0 0 0 0 0 0 0 0 0 0 0 0 0 0 0 2 21 50 8 15 20 16 12 12 6 0 0 0 0 0 0 0 0 0 0 0 0 0 0
0 0 0 0 0 0 0 0 0 0 0 1 1 0 0 0 0 0 0 0 0 0 0 0 0 0 0 0 0 0 0 0 0 0 0 0 0 0 0 0 0 0 0 0 0 0 0 0 0 0 0 0 0 0 0 0 0 0 0 0 0 5 14 11 12 36 50 37 27 19 12 8 1 2 2 3 2 4 3 1 0 0 0 0 0
0 0 0 0 0 0 0 0 0 0 0 0 0 0 0 0 0 0 0 0 0 0 0 0 0 0 0 0 0 0 0 0 0 0 0 0 0 0 0 0 0 0 0 0 0 0 0 0 0 0 0 0 0 0 0 0 0 0 0 0 0 0 4 12 22 25 25 14 18 21 13 7 4 3 2 2 6 7 4 4 0 0 0 0 0
0 0 0 0 0 0 0 0 0 0 0 0 0 0 0 0 0 0 0 0 0 0 0 0 0 0 0 0 0 0 0 0 0 0 0 0 0 0 0 0 0 0 0 0 0 0 0 0 0 0 0 0 0 0 0 0 0 3 2 3 11 14 11 14 15 13 16 13 13 19 18 11 8 6 4 2 0 2 3 11 8 3 2 2 0
0 0 0 0 0 0 1 1 0 0 0 0 0 0 0 0 0 0 0 0 0 0 0 0 0 0 0 0 0 0 0 0 0 0 0 0 0 0 0 0 0 0 0 0 0 0 0 0 0 0 0 0 0 0 0 0 0 2 4 11 14 13 4 0 0 0 6 13 9 8 6 3 3 7 7 6 1 3 6 6 7 7 4 2 3
0 0 0 0 0 0 0 0 0 0 0 0 0 0 0 0 0 0 0 0 0 0 0 0 0 0 0 0 0 0 0 0 0 0 0 0 0 0 0 0 0 0 0 0 0 0 0 0 0 0 0 0 1 1 2 1 2 2 4 5 4 3 2 4 6 12 16 13 8 5 5 4 4 5 8 10 8 11 10 8 9 9 6 2 0
0 0 0 0 0 0 0 0 0 0 0 0 0 0 0 0 0 0 0 0 0 0 0 0 0 0 0 0 0 0 0 0 0 0 0 0 0 0 0 0 0 0 0 0 0 0 0 0 0 0 0 0 0 0 4 4 3 5 5 4 6 9 9 5 8 7 9 10 10 13 15 18 15 15 14 15 18 16 17 10 4 1 2 3 6
0 0 0 0 0 0 0 0 0 0 0 0 0 0 0 0 0 0 0 0 0 0 0 0 0 0 0 0 0 0 0 0 0 0 0 0 0 0 0 0 0 1 2 2 4 3 4 3 3 4 2 4 3 2 3 3 3 3 4 2 6 7 7 10 10 11 6 10 10 10 11 15 16 17 16 17 6 6 10 9 9 10 10 10 8
0 0 0 0 0 0 0 0 0 0 0 0 0 0 0 0 0 0 0 0 0 0 0 0 0 0 0 0 0 0 0 1 2 2 4 2 2 5 3 3 4 6 7 6 7 7 8 8 8 11 11 7 5 5 5 5 7 9 11 11 10 11 12 8 6 6 6 7 10 13 15 12 11 8 6 3 10 13 14 12 10 7 6 4 8
0 0 0 0 0 0 0 0 0 0 0 0 0 0 0 0 0 0 0 1 1 0 0 0 0 2 2 0 0 0 0 0 1 5 2 3 4 6 5 4 4 7 7 7 7 8 9 9 10 12 11 10 15 14 11 12 12 11 12 13 14 11 9 8 8 7 9 9 10 10 13 11 11 12 13 10 13 12 12 12 13 12 15 14 13
0 0 0 0 0 0 0 0 0 0 0 0 0 0 0 0 1 2 4 3 2 1 0 0 0 0 4 1 2 2 3 2 2 3 3 2 2 3 4 4 5 5 5 5 7 9 9 10 9 10 12 12 12 13 12 14 13 14 14 14 16 14 12 13 13 11 14 13 12 8 10 9 11 10 11 9 11 12 13 15 14 14 12 14 13
0 0 0 0 0 0 0 0 0 0 0 0 0 0 1 3 3 4 2 2 2 3 2 2 0 0 2 3 3 2 2 2 2 2 2 4 2 4 5 6 7 8 7 9 9 10 11 8 9 10 10 10 12 13 13 12 14 15 18 17 19 18 21 22 20 19 15 14 8 9 10 8 9 9 8 9 8 10 6 9 11 8 10 14 14
0 0 2 1 0 0 0 0 0 0 0 0 0 1 2 2 4 4 4 3 4 3 3 3 3 4 3 3 2 2 1 2 2 2 2 2 4 5 6 6 7 8 10 11 11 10 10 9 9 9 7 10 11 9 9 14 15 14 17 17 15 12 11 13 14 10 10 10 6 4 3 2 2 1 1 1 0 1 1 0 2 1 3 3 3
0 2 0 1 2 1 0 0 0 0 0 2 2 3 2 2 2 2 4 4 2 4 4 4 4 3 2 3 2 2 2 3 2 2 4 5 6 8 7 8 6 9 12 15 16 9 9 9 11 9 9 10 10 10 12 12 15 14 16 13 16 7 0 0 0 1 2 4 4 4 3 3 3 2 0 0 0 0 0 0 0 0 0 0 0
0 0 0 1 1 2 0 0 0 1 3 3 2 2 1 0 0 2 2 2 4 4 4 3 3 2 2 1 0 2 4 2 2 6 6 6 7 7 8 10 10 11 11 10 10 8 6 5 6 8 6 8 10 10 9 10 12 12 12 16 6 0 1 0 0 0 1 1 0 0 1 0 1 1 1 0 0 0 0 0 2 1 0 0 0
0 1 1 0 0 1 1 0 0 0 0 0 0 0 0 0 2 1 3 4 4 4 3 0 1 0 1 1 4 4 5 7 8 7 6 6 8 11 9 7 10 10 10 9 6 8 11 11 12 12 8 8 10 10 10 8 10 8 10 5 0 0 0 0 0 0 0 0 0 2 6 8 7 9 8 8 4 1 1 4 5 7 4 5 5
0 1 1 0 1 2 0 0 0 0 0 0 1 0 0 0 2 5 4 2 2 2 1 3 2 2 2 5 2 4 8 8 6 5 6 6 7 7 7 6 7 7 8 9 8 8 8 12 13 14 11 12 12 11 8 9 6 8 2 0 1 0 0 0 0 0 0 0 2 3 5 6 8 5 4 3 4 2 1 1 2 6 6 8 8
0 0 1 1 1 3 3 2 2 1 0 1 0 2 0 1 3 0 3 3 1 3 3 3 4 0 6 4 8 9 8 8 6 5 1 5 7 5 5 2 5 1 6 5 5 6 7 10 8 8 12 12 11 10 11 11 12 6 0 0 0 0 0 0 0 0 0 0 0 1 2 6 7 3 2 0 1 2 2 2 4 4 4 6 6
Wind_Speed
10 10 11 12 12 12 12 12 10 11 10 11 9 9 8 8 9 10 12 11 12 11 9 9 9 9 9 9 9 10 9 8 7 7 6 5 4 4 6 5 5 5 5 6 8 8 8 8 7 6 5 5 4 4 5 4 2 2 3 3 2 3 3 3 2 1 1 2 1 2 4 3 3 4 3 3 5 6 6 5 4 4 3 2 3
10 10 11 12 11 13 12 13 12 11 11 11 11 10 9 8 8 10 10 12 11 11 10 9 9 9 9 10 10 10 10 9 7 7 6 6 4 4 4 4 4 5 6 6 6 7 8 7 7 6 6 5 5 4 4 4 4 5 5 4 4 4 6 4 4 2 2 2 3 3 2 5 2 4 4 4 5 4 6 5 4 4 3 3 2
11 12 12 12 11 12 13 13 13 11 11 12 12 12 12 9 9 8 8 9 12 11 12 10 12 11 10 11 12 11 11 10 9 8 8 7 6 6 6 6 5 4 5 5 5 6 6 6 6 6 7 8 8 7 6 7 7 7 5 5 4 4 5 6 5 4 3 2 3 3 5 6 3 3 2 2 2 2 3 3 4 4 4 3 2
14 13 13 13 12 12 13 14 13 12 12 13 13 13 12 12 12 10 8 8 10 12 11 12 13 12 11 11 12 11 12 10 10 10 9 8 7 6 5 5 5 4 5 5 5 5 5 6 6 6 8 8 7 8 8 8 8 8 7 7 6 6 6 6 6 5 5 2 2 3 5 5 3 3 3 2 2 3 1 3 2 4 4 3 2
18 17 15 14 13 13 13 13 13 14 15 16 14 13 12 12 14 12 11 9 8 11 13 12 13 13 12 12 12 11 11 11 11 10 10 10 8 6 6 5 4 4 4 5 6 5 5 5 6 6 6 6 6 6 8 9 9 8 7 8 7 7 7 6 5 4 4 3 2 2 3 3 4 3 3 3 3 2 3 3 5 4 5 4 2
17 17 16 15 17 16 14 13 12 12 12 12 12 11 11 12 13 14 13 11 10 10 12 13 13 13 12 12 12 12 12 12 12 11 10 10 9 7 6 5 5 5 5 5 6 6 6 6 7 6 6 6 7 8 9 7 6 5 7 7 7 6 5 3 3 4 3 3 2 1 1 3 4 4 2 3 2 3 4 5 5 5 6 6 4
17 16 16 16 18 17 15 15 14 14 14 14 13 12 11 10 12 13 15 14 13 11 11 12 13 13 14 13 12 12 12 12 13 12 10 9 9 8 6 6 6 6 6 7 7 7 7 7 8 7 6 5 6 6 7 6 6 6 5 5 4 5 4 4 4 3 3 3 3 3 2 3 3 1 3 3 3 3 4 6 6 5 5 6 3
17 17 19 20 19 20 20 19 19 18 19 18 17 15 14 13 13 15 16 16 16 15 13 12 13 13 14 14 14 14 14 13 13 12 10 10 10 9 8 7 6 7 7 8 8 8 9 8 8 8 8 7 6 6 6 6 6 5 5 5 5 4 4 4 4 4 4 4 4 4 5 4 4 3 2 3 2 3 5 7 6 6 5 5 1
18 19 21 22 22 24 25 24 24 24 26 26 23 19 18 17 17 17 17 17 17 17 16 14 13 14 14 15 15 15 14 14 14 14 12 12 10 9 9 8 8 8 8 7 8 9 9 9 9 8 11 15 12 8 8 9 7 5 4 4 4 5 4 5 5 5 5 4 5 6 5 6 6 5 4 4 3 4 6 5 6 5 6 5 2
22 23 23 23 25 25 24 26 26 25 26 27 25 23 22 21 22 21 20 19 18 18 19 19 16 16 15 16 16 14 15 14 19 27 21 16 13 12 11 10 9 9 9 9 8 8 9 8 9 16 17 12 10 9 7 6 7 5 6 7 6 6 6 6 5 6 6 6 6 6 6 6 7 7 6 5 3 3 4 6 5 6 5 5 5
24 24 24 26 27 27 26 25 24 21 21 22 24 24 22 23 25 26 25 23 20 20 18 18 17 17 16 15 15 15 14 25 31 28 23 19 15 12 12 11 10 10 9 10 10 9 9 10 9 13 16 14 11 10 7 8 8 8 6 5 5 5 6 6 7 7 7 6 7 7 6 7 7 8 7 5 5 5 5 4 4 5 5 5 6
26 25 25 26 27 24 25 24 23 21 21 21 21 22 22 22 25 27 29 27 24 21 19 17 18 19 18 17 15 14 20 29 28 27 20 19 16 14 13 12 11 11 11 11 12 11 11 11 11 11 11 12 12 12 12 11 10 9 9 8 9 7 5 6 8 8 7 6 6 7 7 7 7 8 7 6 7 6 5 4 4 5 5 5 6
20 21 20 20 19 19 20 20 20 20 20 20 20 20 20 20 21 23 26 28 28 24 22 20 19 21 20 19 18 16 24 29 29 27 23 18 16 14 14 12 12 12 12 12 12 13 14 14 13 14 14 23 14 10 11 12 14 13 10 10 9 8 9 8 7 7 7 7 6 6 8 7 6 7 9 8 8 6 6 5 5 5 6 6 6
26 24 23 23 21 19 18 17 18 19 19 19 19 18 17 18 20 21 25 28 29 28 24 23 22 22 23 22 21 21 28 30 28 25 24 22 19 16 15 13 13 12 12 12 13 14 16 15 16 16 15 16 15 14 14 13 13 12 12 12 12 13 15 13 12 11 10 8 8 8 10 10 8 8 9 9 7 6 5 4 6 6 6 6 8
27 26 27 28 30 31 29 25 22 20 18 18 17 17 17 18 22 23 22 25 29 32 30 26 25 24 23 24 22 26 30 31 28 25 25 22 23 18 16 16 16 15 14 15 15 14 16 16 16 16 17 17 22 23 19 16 15 14 12 12 11 11 12 13 14 15 16 14 11 10 10 11 10 9 11 12 9 8 7 6 7 6 5 5 6
30 29 29 30 32 32 31 29 28 27 28 25 23 24 24 22 23 24 22 23 28 35 34 28 26 25 24 25 23 30 32 35 30 27 26 25 23 19 20 21 19 18 20 19 19 20 19 19 19 19 18 23 26 28 24 19 17 15 14 14 13 13 13 14 15 15 11 10 11 10 11 15 18 13 14 14 14 10 8 7 8 8 5 5 6
33 32 32 32 31 31 31 31 30 29 29 29 29 28 26 26 25 22 22 25 29 31 32 30 28 26 28 26 26 31 33 37 35 33 31 29 23 23 24 23 22 21 22 24 22 22 21 22 21 19 22 28 27 27 26 20 18 17 17 16 16 17 16 16 19 18 14 15 13 9 8 6 5 7 8 9 14 14 12 10 10 9 6 6 7
36 35 34 33 33 33 32 32 32 32 32 31 29 26 25 25 24 23 23 23 24 27 31 32 31 31 29 29 28 31 33 37 38 37 35 33 28 26 26 24 24 24 24 23 24 23 29 31 24 24 27 28 28 28 25 20 18 17 17 17 17 16 17 18 19 21 19 16 16 14 13 11 9 9 9 10 10 17 15 12 10 11 8 8 9
38 38 37 34 34 35 36 36 34 33 nan 34 31 27 23 21 18 18 20 20 24 28 29 29 30 31 33 35 37 33 33 36 38 38 38 37 32 25 27 25 24 25 25 26 25 28 28 33 37 34 31 30 30 28 25 24 21 19 19 18 18 18 20 20 22 22 21 21 19 19 18 18 18 18 18 17 16 20 18 14 12 12 10 10 11
38 37 nan 34 33 34 36 36 34 33 nan 34 nan 29 nan nan 21 17 16 15 19 23 25 28 30 29 29 30 31 33 34 35 36 39 40 39 37 31 27 27 22 23 26 26 27 29 30 33 35 37 37 32 30 28 28 27 25 24 23 22 20 20 26 25 23 22 20 19 19 19 18 18 17 19 18 19 21 21 20 19 16 14 13 11 12
40 38 36 36 36 36 34 34 33 33 nan nan 34 32 30 30 nan 24 18 17 21 21 23 23 22 23 25 25 28 30 31 33 35 38 39 40 40 36 34 33 31 29 28 29 26 27 31 30 35 38 39 35 30 29 28 28 27 27 25 25 27 29 27 22 22 21 20 19 19 20 21 22 22 22 22 23 22 22 22 21 18 17 16 14 15
nan 40 38 38 38 38 39 37 36 nan 34 37 37 nan nan 34 nan nan nan nan nan nan nan 18 21 23 25 25 26 27 31 32 30 34 34 35 36 37 33 33 31 27 27 27 27 28 28 29 32 38 36 32 29 28 28 28 28 27 29 31 29 28 27 25 23 23 23 23 22 nan nan 24 24 24 24 24 24 27 25 23 24 22 20 18 17
39 39 nan 39 38 38 38 38 36 36 37 37 37 37 36 37 37 nan nan nan nan nan nan 22 nan nan 27 28 28 29 30 31 32 31 32 33 33 33 33 31 30 27 27 27 27 25 27 25 29 33 29 26 25 24 24 26 25 30 32 29 27 28 27 27 26 nan nan nan nan nan 25 26 26 27 27 28 28 29 26 24 23 22 21 21 20
40 40 39 37 nan 37 37 38 nan nan nan nan nan 37 36 36 37 37 35 nan nan nan 29 28 28 29 29 30 30 30 30 31 32 32 32 33 34 32 32 32 32 29 26 27 26 27 26 26 26 26 24 23 22 22 22 23 nan nan nan nan nan nan nan nan nan 29 29 28 27 27 27 29 29 29 31 31 30 30 28 26 25 25 25 24 24
42 42 41 40 40 39 38 nan 38 nan nan nan 36 36 37 37 38 38 36 35 nan nan nan nan nan nan nan nan 31 nan 31 30 32 33 32 33 nan nan nan nan nan nan nan nan nan 31 30 25 22 21 21 21 20 18 nan nan nan nan nan nan nan nan nan 31 31 31 nan nan nan 30 31 31 31 31 32 32 30 29 29 30 30 29 28 28 27
44 44 43 42 41 40 39 39 nan nan 40 nan nan nan nan nan nan nan nan nan nan nan nan nan nan nan nan nan nan nan nan nan nan nan nan nan nan nan nan nan nan nan nan nan nan nan nan nan nan nan nan nan nan nan nan nan nan nan nan nan nan nan nan nan nan nan nan nan nan nan nan 33 33 34 32 30 31 32 32 31 31 31 31 32 31
nan nan 44 44 nan nan nan 39 nan nan nan nan nan nan nan nan 39 nan nan nan nan nan nan nan nan nan nan nan nan nan nan nan nan nan nan nan nan nan nan nan nan nan nan nan nan nan nan nan nan nan nan nan nan nan nan nan nan nan nan nan nan nan nan nan nan nan nan nan nan 32 34 34 34 32 31 31 31 32 33 33 32 32 33 32 31
nan nan nan nan nan nan nan nan nan nan 40 nan nan nan nan nan nan nan nan nan nan nan nan nan nan nan nan nan nan nan nan nan nan nan nan nan nan nan nan nan nan nan nan nan nan nan nan nan nan nan nan nan nan nan nan nan nan nan nan nan nan nan nan nan nan nan 33 34 34 35 35 35 34 33 33 32 34 35 36 35 35 34 34 34 32
nan nan nan nan nan nan nan nan nan nan nan nan nan nan nan nan nan nan nan nan nan nan nan nan nan nan nan nan nan nan nan nan nan nan nan nan nan nan nan nan nan nan nan nan nan nan nan nan nan nan nan nan nan nan nan nan nan nan nan nan nan nan nan nan nan nan nan 39 nan 37 36 nan nan nan 35 nan nan nan 37 36 35 35 35 35 33
nan nan nan nan nan nan nan nan nan nan nan nan nan nan nan nan nan nan nan nan nan nan nan nan nan nan nan nan nan nan nan nan nan nan nan nan nan nan nan nan nan nan nan nan nan nan nan nan nan nan nan nan nan nan nan nan nan nan nan nan nan nan nan nan nan nan nan nan nan nan nan nan nan nan nan nan nan nan nan nan nan 38 38 37 36
nan nan nan nan nan nan nan nan nan nan nan nan nan nan nan nan nan nan nan nan nan nan nan nan nan nan nan nan nan nan nan nan nan nan nan nan nan nan nan nan nan nan nan nan nan nan nan nan nan nan nan nan nan nan nan nan nan nan nan nan nan nan nan nan nan nan nan nan nan nan nan nan nan nan nan nan nan nan nan nan nan nan nan nan nan
nan nan nan nan nan nan nan nan nan nan nan nan nan nan nan nan nan nan nan nan nan nan nan nan nan nan nan nan nan nan nan nan nan nan nan nan nan nan nan nan nan nan nan nan nan nan nan nan nan nan nan nan nan nan nan nan nan nan nan nan nan nan nan nan nan nan nan nan nan nan nan nan nan nan nan nan nan nan nan nan nan nan nan nan nan
nan nan nan nan nan nan nan nan nan nan nan nan nan nan nan nan nan nan nan nan nan nan nan nan nan nan nan nan nan nan nan nan nan nan nan nan nan nan nan nan nan nan nan nan nan nan nan nan nan nan nan nan nan nan nan nan nan nan nan nan nan nan nan nan nan nan nan nan nan nan nan nan nan nan nan nan nan nan nan nan nan nan nan nan nan
nan nan nan nan nan nan nan nan nan nan nan nan nan nan nan nan nan nan nan nan nan nan nan nan nan nan nan nan nan nan nan nan nan nan nan nan nan nan nan nan nan nan nan nan nan nan nan nan nan nan nan nan nan nan nan nan nan nan nan nan nan nan nan nan nan nan nan nan nan nan nan nan nan nan nan nan nan nan nan nan nan nan nan nan nan
nan nan nan nan nan nan nan nan nan nan nan nan nan nan nan nan nan nan nan nan nan nan nan nan nan nan nan nan nan nan nan nan nan nan nan nan nan nan nan nan nan nan nan nan nan nan nan nan nan nan nan nan nan nan nan nan nan nan nan nan nan nan nan nan nan nan nan nan nan nan nan nan nan nan nan nan nan nan nan nan nan nan nan nan nan
nan nan nan nan nan nan nan nan nan nan nan nan nan nan nan nan nan nan nan nan nan nan nan nan nan nan nan nan nan nan nan nan nan nan nan nan nan nan nan nan nan nan nan nan nan nan nan nan nan nan nan nan nan nan nan nan nan nan nan nan nan nan nan nan nan nan nan nan nan nan nan nan nan nan nan nan nan nan nan nan nan nan nan nan nan
nan nan nan nan nan nan nan nan nan nan nan nan nan nan nan nan nan nan nan nan nan nan nan nan nan nan nan nan nan nan nan nan nan nan nan nan nan nan nan nan nan nan nan nan nan nan nan nan nan nan nan nan nan nan nan nan nan nan nan nan nan nan nan nan nan nan nan nan nan nan nan nan nan nan nan nan nan nan nan nan nan nan nan nan nan
nan nan nan nan nan nan nan nan nan nan nan nan nan nan nan nan nan nan nan nan nan nan nan nan nan nan nan nan nan nan nan nan nan nan nan nan nan nan nan nan nan nan nan nan nan nan nan nan nan nan nan nan nan nan nan nan nan nan nan nan nan nan nan nan nan nan nan nan nan nan nan nan nan nan nan nan nan nan nan nan nan nan nan nan nan
nan nan nan nan nan nan nan nan nan nan nan nan nan nan nan nan nan nan nan nan nan nan nan nan nan nan nan nan nan nan nan nan nan nan nan nan nan nan nan nan nan nan nan nan nan nan nan nan nan nan nan nan nan nan nan nan nan nan nan nan nan nan nan nan nan nan nan nan nan nan nan nan nan nan nan nan nan nan nan nan nan nan nan nan nan
nan nan nan nan nan nan nan nan nan nan nan nan nan nan nan nan nan nan nan nan nan nan nan nan nan nan nan nan nan nan nan nan nan nan nan nan nan nan nan nan nan nan nan nan nan nan nan nan nan nan nan nan nan nan nan nan nan nan nan nan nan nan nan nan nan nan nan nan nan nan nan nan nan nan nan nan nan nan nan nan nan nan nan nan nan
nan nan nan nan nan nan nan nan nan nan nan nan nan nan nan nan nan nan nan nan nan nan nan nan nan nan nan nan nan nan nan nan nan nan nan nan nan nan nan nan nan nan nan nan nan nan nan nan nan nan nan nan nan nan nan nan nan nan nan nan nan nan nan nan nan nan nan nan nan nan nan nan nan nan nan nan nan nan nan nan nan nan nan nan nan
nan nan nan nan nan nan nan nan nan nan nan nan nan nan nan nan nan nan nan nan nan nan nan nan nan nan nan nan nan nan nan nan nan nan nan nan nan nan nan nan nan nan nan nan nan nan nan nan nan nan nan nan nan nan nan nan nan nan nan nan nan nan nan nan nan nan nan nan nan nan nan nan nan nan nan nan nan nan nan nan nan nan nan nan nan
nan nan nan nan nan nan nan nan nan nan nan nan nan nan nan nan nan nan nan nan nan nan nan nan nan nan nan nan nan nan nan nan nan nan nan nan nan nan nan nan nan nan nan nan nan nan nan nan nan nan nan nan nan nan nan nan nan nan nan nan nan nan nan nan nan nan nan nan nan nan nan nan nan nan nan nan nan nan nan nan nan nan nan nan nan
nan nan nan nan nan nan nan nan nan nan nan nan nan nan nan nan nan nan nan nan nan nan nan nan nan nan nan nan nan nan nan nan nan nan nan nan nan nan nan nan nan nan nan nan nan nan nan nan nan nan nan nan nan nan nan nan nan nan nan nan nan nan nan nan nan nan nan nan nan nan nan nan nan nan nan nan nan nan nan nan nan nan nan nan nan
nan nan nan nan nan nan nan nan nan nan nan nan nan nan nan nan nan nan nan nan nan nan nan nan nan nan nan nan nan nan nan nan nan nan nan nan nan nan nan nan nan nan nan nan nan nan nan nan nan nan nan nan nan nan nan nan nan nan nan nan nan nan nan nan nan nan nan nan nan nan nan nan nan nan nan nan nan nan nan nan nan nan nan nan nan
nan nan nan nan nan nan nan nan nan nan nan nan nan nan nan nan nan nan nan nan nan nan nan nan nan nan nan nan nan nan nan nan nan nan nan nan nan nan nan nan nan nan nan nan nan nan nan nan nan nan nan nan nan nan nan nan nan nan nan nan nan nan nan nan nan nan nan nan nan nan nan nan nan nan nan nan nan nan nan nan nan nan nan nan nan
nan nan nan nan nan nan nan nan nan nan nan nan nan nan nan nan nan nan nan nan nan nan nan nan nan nan nan nan nan nan nan nan nan nan nan nan nan nan nan nan nan nan nan nan nan nan nan nan nan nan nan nan nan nan nan nan nan nan nan nan nan nan nan nan nan nan nan nan nan nan nan nan nan nan nan nan nan nan nan nan nan nan nan nan nan
nan nan nan nan nan nan nan nan nan nan nan nan nan nan nan nan nan nan nan nan nan nan nan nan nan nan nan nan nan nan nan nan nan nan nan nan nan nan nan nan nan nan nan nan nan nan nan nan nan nan nan nan nan nan nan nan nan nan nan nan nan nan nan nan nan nan nan nan nan nan nan nan nan nan nan nan nan nan nan nan nan nan nan nan nan
nan nan nan nan nan nan nan nan nan nan nan nan nan nan nan nan nan nan nan nan nan nan nan nan nan nan nan nan nan nan nan nan nan nan nan nan nan nan nan nan nan nan nan nan nan nan nan nan nan nan nan nan nan nan nan nan nan nan nan nan nan nan nan nan nan nan nan nan nan nan nan nan nan nan nan nan nan nan nan nan nan nan nan nan nan
nan nan nan nan nan nan nan nan nan nan nan nan nan nan nan nan nan nan nan nan nan nan nan nan nan nan nan nan nan nan nan nan nan nan nan nan nan nan nan nan nan nan nan nan nan nan nan nan nan nan nan nan nan nan nan nan nan nan nan nan nan nan nan nan nan nan nan nan nan nan nan nan nan nan nan nan nan nan nan nan nan nan nan nan nan
nan nan nan nan nan nan nan nan nan nan nan nan nan nan nan nan nan nan nan nan nan nan nan nan nan nan nan nan nan nan nan nan nan nan nan nan nan nan nan nan nan nan nan nan nan nan nan nan nan nan nan nan nan nan nan nan nan nan nan nan nan nan nan nan nan nan nan nan nan nan nan nan nan nan nan nan nan nan nan nan nan nan nan nan nan
Wind_Direction
251 250 247 245 241 243 244 245 239 237 236 238 226 221 223 230 236 230 241 236 233 236 234 227 230 231 225 232 238 244 239 234 234 237 239 236 222 217 216 222 214 211 222 216 214 227 230 229 226 219 219 215 220 210 206 212 234 260 268 267 244 259 262 252 237 217 193 195 156 221 217 225 222 235 191 170 159 181 147 185 155 169 170 187 160
247 248 245 245 242 242 238 241 243 240 244 251 251 242 229 233 239 238 240 247 244 243 248 243 244 237 235 241 236 241 249 246 235 241 236 238 227 249 275 261 239 218 214 217 224 220 231 233 232 231 243 238 230 217 222 213 212 207 219 221 225 228 264 265 256 254 210 206 215 222 245 252 215 234 205 166 177 157 167 168 171 176 223 210 193
240 239 241 246 244 238 236 240 242 245 247 253 263 262 260 251 246 249 248 247 257 250 257 255 252 250 239 241 245 242 245 246 248 242 238 236 229 213 231 258 258 245 245 239 226 227 226 227 234 243 247 247 245 243 244 241 237 228 221 231 232 236 252 271 276 278 268 239 188 189 241 245 230 219 196 204 169 174 174 187 189 213 226 217 223
229 231 234 240 242 237 234 230 231 232 240 245 252 257 257 260 262 256 253 251 259 263 257 253 261 260 255 255 255 248 250 247 247 252 250 242 231 237 234 230 234 248 249 238 238 241 227 224 221 225 230 235 242 238 243 251 253 258 252 255 263 258 264 280 291 290 288 271 221 198 228 233 244 239 228 243 205 214 225 221 222 220 226 230 198
229 229 228 232 240 242 243 240 236 233 228 229 233 245 252 251 253 251 246 248 253 265 265 258 256 260 257 261 261 260 257 253 248 245 248 251 251 245 248 253 260 255 249 252 246 235 231 225 228 226 226 227 236 245 249 249 248 245 249 255 257 258 257 258 268 280 276 272 234 216 215 248 262 251 241 238 252 266 251 251 237 228 244 241 219
239 241 244 244 243 242 240 243 247 250 247 244 241 236 243 252 254 256 252 243 247 253 263 259 258 259 254 252 256 260 258 255 251 244 246 256 263 260 264 273 277 277 274 275 273 266 259 256 246 236 227 223 220 229 232 232 241 247 241 242 240 244 246 247 262 265 267 273 277 230 259 235 252 269 273 293 274 249 254 254 251 241 242 249 251
249 251 252 253 252 254 252 247 246 252 258 257 255 251 249 253 258 257 256 252 248 249 257 260 256 255 256 253 252 256 257 257 255 255 249 247 252 257 255 266 271 273 283 281 278 277 271 267 265 259 251 239 226 228 235 238 242 236 250 258 255 254 250 243 246 251 265 274 279 299 292 283 270 278 293 291 314 307 263 257 258 254 243 247 239
250 255 256 257 258 257 254 251 250 254 256 256 258 255 250 249 249 249 247 249 247 245 246 257 261 257 254 254 253 253 256 257 263 263 259 255 257 265 269 263 263 267 268 272 274 277 277 276 277 274 273 272 262 248 248 246 245 244 248 248 247 252 251 249 249 251 261 269 279 270 277 289 308 313 310 318 287 265 250 242 239 245 253 273 225
250 255 255 256 258 258 257 254 250 253 256 256 256 257 256 254 251 248 251 247 243 243 244 245 254 255 254 252 252 252 254 260 264 269 270 266 257 258 263 266 268 267 262 267 277 282 285 284 286 290 273 258 255 251 233 232 235 243 245 248 254 250 251 254 255 259 265 269 270 278 291 288 289 300 282 269 254 226 246 250 249 252 256 266 268
250 251 252 252 253 258 262 261 260 257 258 259 260 263 263 258 254 252 249 247 242 237 233 237 244 255 257 257 255 254 251 253 261 251 242 245 255 255 258 263 266 266 270 274 278 287 293 291 288 275 273 288 296 299 301 295 296 267 244 237 234 238 248 252 255 256 253 249 254 259 259 267 271 271 266 273 281 284 256 245 240 243 246 253 278
251 252 254 254 255 257 260 264 268 267 267 264 265 272 274 266 258 252 249 248 244 243 238 237 239 246 255 260 260 255 251 243 244 258 257 253 250 261 262 262 270 274 279 283 278 276 279 284 284 298 303 306 314 324 313 304 303 304 303 290 265 257 256 262 265 261 259 257 263 270 264 258 267 271 280 283 290 275 271 262 244 248 252 236 243
246 249 251 257 260 262 262 265 271 272 271 272 276 279 276 271 264 259 252 250 250 245 243 238 236 236 243 251 254 252 250 240 242 245 248 261 264 259 265 270 273 277 279 276 276 278 280 281 285 283 288 278 266 285 303 313 307 303 303 301 302 316 307 280 267 268 267 263 265 264 261 262 261 273 273 271 274 274 277 273 260 246 240 242 247
243 245 250 253 258 263 272 277 276 272 270 272 276 278 278 278 275 266 258 251 246 246 242 238 239 239 235 239 242 246 247 240 239 239 240 246 262 264 262 263 266 273 274 276 273 272 271 271 270 270 273 283 287 287 273 275 299 309 307 306 304 309 311 321 317 295 272 278 271 268 275 263 258 266 266 264 265 272 276 278 262 242 237 235 238
237 239 242 243 247 256 262 267 267 265 267 270 272 276 281 285 279 270 262 253 245 244 243 241 239 238 238 240 241 246 245 241 237 238 238 240 245 261 259 259 265 267 271 275 277 279 278 275 275 277 274 275 280 280 275 274 267 274 284 287 286 303 320 326 329 335 322 293 279 278 279 284 283 275 271 272 272 270 262 253 248 243 241 233 232
243 243 241 239 240 242 246 247 252 252 261 271 270 274 277 281 281 269 260 253 246 245 245 242 239 239 241 244 240 244 245 241 238 234 235 235 243 250 255 256 256 257 262 269 270 268 271 276 276 275 275 275 264 262 266 265 266 267 267 265 273 273 279 292 303 303 303 303 297 290 286 289 292 285 282 284 284 278 275 260 250 249 253 251 262
246 242 241 241 241 240 244 252 252 251 249 259 274 272 271 272 273 271 266 258 248 244 244 242 240 237 238 239 248 250 242 235 233 232 234 233 236 250 254 254 254 256 261 259 260 261 264 264 267 269 270 267 258 256 256 258 263 266 265 264 262 265 265 259 265 276 269 258 256 250 249 241 240 249 257 260 261 262 264 272 273 274 268 258 264
244 244 244 242 243 245 246 248 250 247 248 249 251 258 266 264 257 253 262 262 253 244 240 240 238 238 241 241 241 243 241 234 230 228 229 230 236 251 251 251 255 255 257 261 263 264 263 263 260 262 266 262 255 250 247 247 261 263 265 262 260 257 264 268 282 287 298 302 300 288 271 263 258 247 254 264 277 269 263 265 278 279 268 255 256
248 246 243 242 244 246 247 249 250 250 249 245 246 251 253 250 249 247 245 251 253 246 239 237 239 238 239 238 243 246 242 236 230 229 229 228 230 246 253 254 257 259 261 263 262 265 265 263 261 258 260 261 255 252 247 251 261 260 259 257 256 257 258 261 262 268 285 299 302 302 302 300 299 297 293 296 298 292 291 289 279 271 267 262 256
247 248 247 243 244 246 245 245 246 245 nan 247 246 245 250 253 248 240 239 239 235 230 229 239 241 243 243 242 246 245 242 239 234 232 232 231 233 248 250 252 255 259 262 264 266 264 264 263 259 259 258 257 255 255 253 251 258 257 257 256 257 258 258 250 256 256 257 260 268 274 280 292 295 293 296 314 320 310 307 306 288 282 281 275 268
251 252 nan 250 247 248 249 245 241 242 nan 248 nan 244 nan nan 243 235 233 233 237 239 236 237 240 241 242 247 246 245 245 243 238 236 237 234 231 238 252 254 255 259 260 259 260 265 268 266 265 264 265 261 261 259 260 258 259 257 255 257 256 256 250 250 252 254 256 261 263 265 266 270 274 277 276 277 287 300 304 304 297 287 282 277 275
245 246 248 250 251 250 247 248 251 248 nan nan 252 251 247 245 nan 243 240 251 244 233 234 236 239 241 243 245 245 245 245 246 242 238 239 238 234 235 249 247 248 251 255 256 256 260 266 267 266 262 259 257 258 260 262 261 262 261 263 263 259 254 251 258 257 256 260 262 267 271 272 273 274 277 280 284 286 286 291 293 286 280 275 274 271
nan 247 249 249 250 250 248 248 251 nan 248 249 251 nan nan 251 nan nan nan nan nan nan nan 246 244 242 244 244 246 246 243 240 244 240 238 238 236 233 242 247 247 248 253 257 259 260 258 259 257 251 249 252 253 255 258 263 266 269 267 263 254 254 261 264 266 265 265 264 264 nan nan 268 269 272 274 277 277 272 269 277 284 285 286 282 274
252 250 nan 250 252 252 254 252 250 250 250 249 249 249 250 251 249 nan nan nan nan nan nan 252 nan nan 248 247 247 246 247 245 241 244 242 237 236 236 235 237 227 239 247 255 251 253 256 255 255 247 242 247 252 253 256 258 264 270 264 261 262 262 268 270 269 nan nan nan nan nan 267 270 271 270 271 271 272 272 274 275 275 277 279 279 281
253 253 253 252 nan 249 251 253 nan nan nan nan nan 248 249 250 250 248 246 nan nan nan 249 246 247 249 250 250 249 249 251 253 251 249 248 244 240 237 234 233 235 239 240 248 249 249 249 249 248 241 245 247 250 252 254 262 nan nan nan nan nan nan nan nan nan 270 269 268 268 267 268 267 268 269 269 268 268 269 272 276 280 281 278 278 277
253 253 252 250 249 249 250 nan 248 nan nan nan 244 245 246 247 248 246 245 245 nan nan nan nan nan nan nan nan 251 nan 251 254 256 257 258 257 nan nan nan nan nan nan nan nan nan 250 249 245 245 246 248 248 251 256 nan nan nan nan nan nan nan nan nan 267 264 264 nan nan nan 268 266 266 266 266 266 266 269 273 277 277 275 275 278 280 280
254 252 252 251 250 251 252 251 nan nan 245 nan nan nan nan nan nan nan nan nan nan nan nan nan nan nan nan nan nan nan nan nan nan nan nan nan nan nan nan nan nan nan nan nan nan nan nan nan nan nan nan nan nan nan nan nan nan nan nan nan nan nan nan nan nan nan nan nan nan nan nan 265 265 263 263 268 269 270 271 272 272 274 274 275 275
nan nan 252 251 nan nan nan 248 nan nan nan nan nan nan nan nan 250 nan nan nan nan nan nan nan nan nan nan nan nan nan nan nan nan nan nan nan nan nan nan nan nan nan nan nan nan nan nan nan nan nan nan nan nan nan nan nan nan nan nan nan nan nan nan nan nan nan nan nan nan 266 263 262 262 264 267 268 270 270 269 269 271 272 272 273 274
nan nan nan nan nan nan nan nan nan nan 251 nan nan nan nan nan nan nan nan nan nan nan nan nan nan nan nan nan nan nan nan nan nan nan nan nan nan nan nan nan nan nan nan nan nan nan nan nan nan nan nan nan nan nan nan nan nan nan nan nan nan nan nan nan nan nan 270 269 266 265 265 266 266 266 267 270 270 270 271 272 272 272 273 273 275
nan nan nan nan nan nan nan nan nan nan nan nan nan nan nan nan nan nan nan nan nan nan nan nan nan nan nan nan nan nan nan nan nan nan nan nan nan nan nan nan nan nan nan nan nan nan nan nan nan nan nan nan nan nan nan nan nan nan nan nan nan nan nan nan nan nan nan 267 nan 267 268 nan nan nan 271 nan nan nan 276 277 277 278 277 278 277
nan nan nan nan nan nan nan nan nan nan nan nan nan nan nan nan nan nan nan nan nan nan nan nan nan nan nan nan nan nan nan nan nan nan nan nan nan nan nan nan nan nan nan nan nan nan nan nan nan nan nan nan nan nan nan nan nan nan nan nan nan nan nan nan nan nan nan nan nan nan nan nan nan nan nan nan nan nan nan nan nan 279 278 279 279
nan nan nan nan nan nan nan nan nan nan nan nan nan nan nan nan nan nan nan nan nan nan nan nan nan nan nan nan nan nan nan nan nan nan nan nan nan nan nan nan nan nan nan nan nan nan nan nan nan nan nan nan nan nan nan nan nan nan nan nan nan nan nan nan nan nan nan nan nan nan nan nan nan nan nan nan nan nan nan nan nan nan nan nan nan
nan nan nan nan nan nan nan nan nan nan nan nan nan nan nan nan nan nan nan nan nan nan nan nan nan nan nan nan nan nan nan nan nan nan nan nan nan nan nan nan nan nan nan nan nan nan nan nan nan nan nan nan nan nan nan nan nan nan nan nan nan nan nan nan nan nan nan nan nan nan nan nan nan nan nan nan nan nan nan nan nan nan nan nan nan
nan nan nan nan nan nan nan nan nan nan nan nan nan nan nan nan nan nan nan nan nan nan nan nan nan nan nan nan nan nan nan nan nan nan nan nan nan nan nan nan nan nan nan nan nan nan nan nan nan nan nan nan nan nan nan nan nan nan nan nan nan nan nan nan nan nan nan nan nan nan nan nan nan nan nan nan nan nan nan nan nan nan nan nan nan
nan nan nan nan nan nan nan nan nan nan nan nan nan nan nan nan nan nan nan nan nan nan nan nan nan nan nan nan nan nan nan nan nan nan nan nan nan nan nan nan nan nan nan nan nan nan nan nan nan nan nan nan nan nan nan nan nan nan nan nan nan nan nan nan nan nan nan nan nan nan nan nan nan nan nan nan nan nan nan nan nan nan nan nan nan
nan nan nan nan nan nan nan nan nan nan nan nan nan nan nan nan nan nan nan nan nan nan nan nan nan nan nan nan nan nan nan nan nan nan nan nan nan nan nan nan nan nan nan nan nan nan nan nan nan nan nan nan nan nan nan nan nan nan nan nan nan nan nan nan nan nan nan nan nan nan nan nan nan nan nan nan nan nan nan nan nan nan nan nan nan
nan nan nan nan nan nan nan nan nan nan nan nan nan nan nan nan nan nan nan nan nan nan nan nan nan nan nan nan nan nan nan nan nan nan nan nan nan nan nan nan nan nan nan nan nan nan nan nan nan nan nan nan nan nan nan nan nan nan nan nan nan nan nan nan nan nan nan nan nan nan nan nan nan nan nan nan nan nan nan nan nan nan nan nan nan
nan nan nan nan nan nan nan nan nan nan nan nan nan nan nan nan nan nan nan nan nan nan nan nan nan nan nan nan nan nan nan nan nan nan nan nan nan nan nan nan nan nan nan nan nan nan nan nan nan nan nan nan nan nan nan nan nan nan nan nan nan nan nan nan nan nan nan nan nan nan nan nan nan nan nan nan nan nan nan nan nan nan nan nan nan
nan nan nan nan nan nan nan nan nan nan nan nan nan nan nan nan nan nan nan nan nan nan nan nan nan nan nan nan nan nan nan nan nan nan nan nan nan nan nan nan nan nan nan nan nan nan nan nan nan nan nan nan nan nan nan nan nan nan nan nan nan nan nan nan nan nan nan nan nan nan nan nan nan nan nan nan nan nan nan nan nan nan nan nan nan
nan nan nan nan nan nan nan nan nan nan nan nan nan nan nan nan nan nan nan nan nan nan nan nan nan nan nan nan nan nan nan nan nan nan nan nan nan nan nan nan nan nan nan nan nan nan nan nan nan nan nan nan nan nan nan nan nan nan nan nan nan nan nan nan nan nan nan nan nan nan nan nan nan nan nan nan nan nan nan nan nan nan nan nan nan
nan nan nan nan nan nan nan nan nan nan nan nan nan nan nan nan nan nan nan nan nan nan nan nan nan nan nan nan nan nan nan nan nan nan nan nan nan nan nan nan nan nan nan nan nan nan nan nan nan nan nan nan nan nan nan nan nan nan nan nan nan nan nan nan nan nan nan nan nan nan nan nan nan nan nan nan nan nan nan nan nan nan nan nan nan
nan nan nan nan nan nan nan nan nan nan nan nan nan nan nan nan nan nan nan nan nan nan nan nan nan nan nan nan nan nan nan nan nan nan nan nan nan nan nan nan nan nan nan nan nan nan nan nan nan nan nan nan nan nan nan nan nan nan nan nan nan nan nan nan nan nan nan nan nan nan nan nan nan nan nan nan nan nan nan nan nan nan nan nan nan
nan nan nan nan nan nan nan nan nan nan nan nan nan nan nan nan nan nan nan nan nan nan nan nan nan nan nan nan nan nan nan nan nan nan nan nan nan nan nan nan nan nan nan nan nan nan nan nan nan nan nan nan nan nan nan nan nan nan nan nan nan nan nan nan nan nan nan nan nan nan nan nan nan nan nan nan nan nan nan nan nan nan nan nan nan
nan nan nan nan nan nan nan nan nan nan nan nan nan nan nan nan nan nan nan nan nan nan nan nan nan nan nan nan nan nan nan nan nan nan nan nan nan nan nan nan nan nan nan nan nan nan nan nan nan nan nan nan nan nan nan nan nan nan nan nan nan nan nan nan nan nan nan nan nan nan nan nan nan nan nan nan nan nan nan nan nan nan nan nan nan
nan nan nan nan nan nan nan nan nan nan nan nan nan nan nan nan nan nan nan nan nan nan nan nan nan nan nan nan nan nan nan nan nan nan nan nan nan nan nan nan nan nan nan nan nan nan nan nan nan nan nan nan nan nan nan nan nan nan nan nan nan nan nan nan nan nan nan nan nan nan nan nan nan nan nan nan nan nan nan nan nan nan nan nan nan
nan nan nan nan nan nan nan nan nan nan nan nan nan nan nan nan nan nan nan nan nan nan nan nan nan nan nan nan nan nan nan nan nan nan nan nan nan nan nan nan nan nan nan nan nan nan nan nan nan nan nan nan nan nan nan nan nan nan nan nan nan nan nan nan nan nan nan nan nan nan nan nan nan nan nan nan nan nan nan nan nan nan nan nan nan
nan nan nan nan nan nan nan nan nan nan nan nan nan nan nan nan nan nan nan nan nan nan nan nan nan nan nan nan nan nan nan nan nan nan nan nan nan nan nan nan nan nan nan nan nan nan nan nan nan nan nan nan nan nan nan nan nan nan nan nan nan nan nan nan nan nan nan nan nan nan nan nan nan nan nan nan nan nan nan nan nan nan nan nan nan
nan nan nan nan nan nan nan nan nan nan nan nan nan nan nan nan nan nan nan nan nan nan nan nan nan nan nan nan nan nan nan nan nan nan nan nan nan nan nan nan nan nan nan nan nan nan nan nan nan nan nan nan nan nan nan nan nan nan nan nan nan nan nan nan nan nan nan nan nan nan nan nan nan nan nan nan nan nan nan nan nan nan nan nan nan
nan nan nan nan nan nan nan nan nan nan nan nan nan nan nan nan nan nan nan nan nan nan nan nan nan nan nan nan nan nan nan nan nan nan nan nan nan nan nan nan nan nan nan nan nan nan nan nan nan nan nan nan nan nan nan nan nan nan nan nan nan nan nan nan nan nan nan nan nan nan nan nan nan nan nan nan nan nan nan nan nan nan nan nan nan
nan nan nan nan nan nan nan nan nan nan nan nan nan nan nan nan nan nan nan nan nan nan nan nan nan nan nan nan nan nan nan nan nan nan nan nan nan nan nan nan nan nan nan nan nan nan nan nan nan nan nan nan nan nan nan nan nan nan nan nan nan nan nan nan nan nan nan nan nan nan nan nan nan nan nan nan nan nan nan nan nan nan nan nan nan
nan nan nan nan nan nan nan nan nan nan nan nan nan nan nan nan nan nan nan nan nan nan nan nan nan nan nan nan nan nan nan nan nan nan nan nan nan nan nan nan nan nan nan nan nan nan nan nan nan nan nan nan nan nan nan nan nan nan nan nan nan nan nan nan nan nan nan nan nan nan nan nan nan nan nan nan nan nan nan nan nan nan nan nan nan
nan nan nan nan nan nan nan nan nan nan nan nan nan nan nan nan nan nan nan nan nan nan nan nan nan nan nan nan nan nan nan nan nan nan nan nan nan nan nan nan nan nan nan nan nan nan nan nan nan nan nan nan nan nan nan nan nan nan nan nan nan nan nan nan nan nan nan nan nan nan nan nan nan nan nan nan nan nan nan nan nan nan nan nan nan